Location: Boychinovtsi
(42.5000°N, 23.8833°E)
Time: 11:34:05
(UTC+00:00)

Daily predictions for brighter satellites

Satellite Brightness Start Highest point End
(mag) Time Altitude Azimuth Time Altitude Azimuth Time Altitude Azimuth
NOSS 3-4 (A) 3.6 17:34:37 10° SW 17:39:50 68° NW 17:45:32 10° NNE
NOSS 3-4 (C) 3.6 17:35:08 10° SW 17:40:21 69° NW 17:46:06 10° NNE
SL-19 R/B 4.4 17:36:36 10° SSE 17:41:55 81° WSW 17:47:33 10° NNW
SPOT 5 2.8 17:43:35 10° SSE 17:48:00 55° ENE 17:52:18 10° N
CZ-4 R/B 2.0 17:45:05 10° SE 17:48:26 32° ENE 17:51:44 10° N
Gblst 52 Del rocket 4.4 17:47:18 10° SW 17:53:04 86° SE 17:59:39 10° ENE
Cosmos 1821 Rocket 4.2 17:50:30 10° SSE 17:56:34 55° E 18:02:45 10° NNE
Cosmos 1025 Rocket 4.4 17:53:20 10° NNE 17:56:39 21° ENE 17:59:43 11° ESE
IRAS Rocket 4.3 17:52:01 10° SSE 17:57:23 60° ENE 18:02:46 10° N
Cosmos 1733 Rocket 3.1 17:53:29 10° S 17:57:45 59° E 18:02:06 10° NNE
Terra 2.8 17:53:50 10° SE 17:57:48 28° ENE 18:01:45 10° N
Meteor 2-15 4.4 17:53:03 10° S 17:59:04 74° E 18:05:10 10° NNE
CZ-4B R/B 3.9 17:56:21 10° SSE 18:00:00 54° ENE 18:03:47 10° N
Cosmos 2237 Rocket 2.6 17:54:37 10° SSW 18:00:16 70° WNW 18:05:59 10° NNE
Cosmos 2242 Rocket 3.7 17:55:57 10° N 18:00:19 54° E 18:04:37 10° SSE
Helios 1A Rocket 2.7 17:58:43 10° NNE 18:01:45 38° E 18:04:44 10° S
Cosmos 1980 4.3 17:56:41 10° SW 18:02:15 62° WNW 18:07:52 10° NNE
Cosmos 2218 Rocket 4.0 17:56:17 10° S 18:02:24 84° E 18:08:36 10° N
SJ-6B 3.8 17:59:09 10° S 18:02:38 44° W 18:06:07 10° NNW
Resurs 01 Rocket 3.6 17:59:34 10° SSW 18:03:25 30° W 18:07:18 10° NNW
Meteor 1-21 Rocket 4.4 17:59:26 10° NNW 18:05:09 83° W 18:10:57 10° S
Meteor 2-15 Rocket 4.5 18:00:35 10° S 18:06:31 60° E 18:12:30 10° NNE
CSL-04 Rocket 3.7 18:01:04 10° SSE 18:06:36 80° ENE 18:12:10 10° NNW
Cosmos 1809 Rocket 4.5 18:03:59 10° N 18:10:11 89° E 18:16:23 10° S
Blok-2BL 4.1 18:09:00 10° SW 18:13:28 90° SE 18:19:06 10° NE
SL-24 R/B 4.4 18:12:20 10° NNE 18:17:45 80° ESE 18:22:31 10° S
USA 59 Rocket -0.2 18:14:52 10° NW 18:18:26 82° NE 18:22:13 15° SE
Cosmos 1346 Rocket 3.3 18:15:40 10° N 18:18:58 33° ENE 18:20:53 19° SE
OAO 3 Rocket 4.2 18:15:12 10° WSW 18:19:16 31° S 18:22:04 17° SE
Gbstr 26 Del rocket 4.3 18:16:06 10° S 18:20:40 26° SE 18:24:22 11° E
Cosmos 1943 Rocket 3.7 18:15:50 10° NW 18:20:54 34° WSW 18:25:54 10° SSW
Cosmos 1400 Rocket 2.6 18:18:11 10° SSW 18:21:46 80° W 18:25:24 10° N
SL-4 R/B 2.9 18:19:28 10° S 18:22:32 23° SE 18:23:54 19° ESE
Feng Yun 1-1 Rocket 4.2 18:17:33 10° SSE 18:23:00 69° ENE 18:28:24 10° N
ASTEX 1 4.4 18:20:30 17° ESE 18:23:18 28° ENE 18:27:29 10° NNE
TIMED 4.4 18:20:33 10° NNW 18:24:50 85° ENE 18:28:25 14° SSE
Meteor 1-31 Rocket 2.7 18:22:05 10° S 18:25:35 73° W 18:29:06 10° NNW
Cosmos 1812 1.4 18:28:43 27° SW 18:29:22 49° W 18:31:00 10° N
ADEOS 3.8 18:25:49 15° SE 18:29:57 54° ENE 18:35:02 10° N
Cosmos 2369 Rocket 3.1 18:25:04 10° N 18:30:05 33° NE 18:33:13 19° ESE
Cosmos 1602 4.5 18:28:48 10° NNE 18:29:48 16° NE 18:29:48 16° NE
Cosmos 1869 4.2 18:32:16 22° E 18:32:26 23° E 18:35:16 10° NE
MOS 1 4.2 18:27:43 11° SSE 18:33:08 75° ENE 18:38:48 10° N
Cosmos 2285 Rocket 4.2 18:27:32 10° S 18:33:38 51° ESE 18:39:43 10° NNE
CBERS 1 LM4 rocket 4.3 18:29:52 15° SSE 18:33:44 69° ENE 18:38:30 10° N
Aureole 3 4.4 18:28:45 10° N 18:34:05 81° W 18:40:17 10° S
USA 234 3.2 18:28:07 10° NE 18:34:39 67° SE 18:41:09 10° SW
SL-08 R/B 3.5 18:32:32 10° NNE 18:37:20 52° E 18:42:05 10° S
USA 186 3.4 18:43:56 14° NE 18:43:56 14° NE 18:44:37 10° NNE
Cosmos 2221 Rocket 3.9 18:39:08 10° N 18:43:23 46° ENE 18:45:17 28° SE
Cosmos 1943 4.1 18:41:49 23° SE 18:43:41 28° ESE 18:48:24 10° NE
CZ-4B DEB 4.4 18:40:27 10° S 18:45:54 73° WSW 18:51:25 10° NNW
CZ-4B R/B 3.2 18:41:50 16° SSE 18:46:24 81° ENE 18:52:05 10° NNW
Cosmos 2278 Rocket 4.1 18:42:53 10° NW 18:47:30 26° WSW 18:52:04 10° SSW
SKYMED 3 4.1 18:44:29 10° NNE 18:48:23 83° ESE 18:52:17 10° S
CZ-4B R/B 4.4 18:52:52 17° ENE 18:52:52 17° ENE 18:54:50 10° NNE
Cosmos 405 Rocket 4.2 18:51:08 10° NNE 18:52:20 16° NE 18:52:20 16° NE
SL-8 R/B 4.2 18:48:37 10° W 18:53:18 60° NNW 18:57:58 10° ENE
HBTSS-SV1 4.5 18:49:09 10° WSW 18:53:32 63° S 18:55:12 35° ESE
OAO 2 Rocket 4.1 18:50:00 10° WSW 18:54:41 35° S 18:56:05 30° SSE
SL-24 R/B 4.4 18:50:22 10° N 18:54:59 69° WNW 18:59:12 10° SSW
NOSS 2-1 (D) 4.1 18:54:17 10° NW 18:57:48 48° WSW 19:00:11 24° S
ERS-1 Rocket 3.2 18:54:03 15° S 18:58:11 67° WSW 19:03:11 10° NNW
Cosmos 1975 Rocket 4.4 18:55:20 10° NNE 18:58:50 22° ENE 18:58:58 22° ENE
Cosmos 2292 Rocket 3.2 19:01:01 10° N 19:05:05 72° W 19:06:14 39° S
Cosmos 1674 Rocket 4.1 19:01:06 10° NNW 19:05:21 57° W 19:08:19 19° SSW
BREEZE-M DEB (TANK) 3.6 19:03:37 10° NW 19:05:49 32° NNE 19:06:42 27° ENE
NOSS 2-1 (E) 3.9 19:02:27 10° NW 19:05:59 53° WSW 19:07:43 32° S
Cosmos 2298 Rocket 4.0 19:01:43 10° SSW 19:07:01 88° WNW 19:12:22 10° NNE
Okean-O 2.6 19:07:12 43° SE 19:08:28 67° ENE 19:12:49 10° N
Cosmos 44 4.3 19:05:48 10° SW 19:10:42 51° NW 19:15:53 10° NNE
Cosmos 1908 Rocket 3.6 19:08:44 17° SSW 19:11:59 74° W 19:16:18 10° N
NOSS 2-1 (C) 4.4 19:08:31 10° NW 19:11:59 40° WSW 19:13:45 28° S
IRS-1A Rocket 4.3 19:08:51 25° S 19:12:16 81° WSW 19:18:02 10° NNW
SL-08 R/B 4.5 19:07:06 10° S 19:13:14 83° W 19:19:23 10° N
Cosmos 1934 Rocket 3.9 19:10:21 16° S 19:15:29 81° E 19:21:42 10° N
CZ-4B R/B 4.0 19:15:34 35° E 19:16:11 36° ENE 19:20:31 10° N
SL-16 R/B 2.7 19:10:43 10° SW 19:16:18 61° WNW 19:21:56 10° NNE
Okean O Rocket 1.4 19:15:51 48° SSE 19:17:02 86° ENE 19:21:22 10° NNW
Ariane Rocket 3.8 19:17:09 32° E 19:17:50 34° ENE 19:22:21 10° N
Cosmos 1782 Rocket 3.4 19:21:41 62° SE 19:22:10 69° E 19:26:27 10° NNE
CZ-4 R/B 3.8 19:20:02 10° SW 19:22:30 17° W 19:24:59 10° NW
Geosat 4.0 19:17:32 10° NNE 19:22:33 78° WNW 19:27:31 10° SSW
Spot 2 Rocket 3.5 19:23:16 39° S 19:25:10 80° WSW 19:30:13 10° NNW
Milstar 3 4.5 19:18:12 10° SSW 19:41:39 - E 19:24:35 27° SSE
MOS 1-B 4.3 19:23:34 35° S 19:26:11 85° WSW 19:32:00 10° NNW
Cosmos 1269 Rocket 4.4 19:24:09 10° N 19:29:15 47° ENE 19:29:59 44° E
USA 245 3.9 19:28:49 55° ESE 19:29:34 63° ENE 19:34:57 10° N
ATLAS 5 CENTAUR R/B 3.8 19:28:41 10° N 19:30:55 14° NE 19:31:56 13° NE
NOSS 3-1 (C) 4.0 19:24:45 10° NNW 19:32:00 78° NE 19:35:43 38° SE
Cosmos 1140 Rocket 3.6 19:27:14 10° N 19:32:16 53° ENE 19:32:51 50° E
Terra 3.3 19:32:10 16° SSW 19:35:12 31° W 19:39:23 10° NNW
Cosmos 967 Rocket 4.4 19:29:45 10° NNW 19:36:14 87° ENE 19:38:09 49° SE
BREEZE-M DEB (TANK) 3.1 19:38:38 10° WNW 19:41:58 80° NNE 19:43:55 45° ESE
Cosmos 2123 Rocket 4.4 19:37:41 10° NNW 19:43:53 61° W 19:47:09 29° SSW
Cosmos 407 Rocket 4.3 19:44:14 10° N 19:48:51 36° ENE 19:48:51 36° ENE
Cosmos 1300 Rocket 4.4 19:48:13 34° SW 19:49:34 46° WNW 19:53:43 10° N
Cosmos 2058 3.9 19:49:37 10° N 19:52:11 36° NNE 19:52:11 36° NNE
Cosmos 371 Rocket 4.5 19:50:57 10° N 19:54:49 31° NE 19:54:49 31° NE
BREEZE-M DEB (TANK) 4.2 19:52:56 10° NW 19:55:56 41° NNE 19:58:01 30° ENE
COSMOS 2455 3.3 19:51:35 10° NNW 19:57:23 46° NE 19:58:10 44° ENE
BREEZE-M DEB (TANK) 4.4 19:54:53 10° WSW 19:59:33 72° NNW 20:19:23 10° ENE
SL-4 R/B 3.7 19:55:54 10° WSW 19:57:35 24° WSW 19:57:35 24° WSW
Cosmos 1605 Rocket 4.0 20:02:57 45° SSW 20:04:55 74° W 20:11:05 10° N
SJ 16-02 3.1 20:01:44 10° N 20:04:02 22° NE 20:04:02 22° NE
Gbstr 26 Del rocket 3.4 20:01:47 10° WSW 20:06:31 64° WNW 20:06:31 64° WNW
Cosmos 1315 Rocket 4.1 20:08:55 36° NW 20:08:55 36° NW 20:11:53 10° N
SPOT 3 Rocket 3.7 20:08:17 63° SW 20:08:38 66° WSW 20:13:47 10° NNW
Cosmos 2297 4.3 20:04:21 10° NW 20:09:50 47° WSW 20:10:44 44° SW
Cosmos 2369 Rocket 3.1 20:08:59 10° NW 20:14:05 38° WSW 20:14:59 35° SW
SeaSat 1 4.4 20:17:06 18° NE 20:17:19 18° NE 20:20:35 10° N
USA 234 4.3 20:11:19 10° NE 20:17:27 44° NNW 20:23:35 10° W
Cosmos 2173 Rocket 4.4 20:18:48 45° ENE 20:18:48 45° ENE 20:23:48 10° NNE
Lacrosse 5 rocket 3.8 20:18:47 10° NNW 20:19:32 13° N 20:19:32 13° N
Cosmos 1603 3.8 20:26:12 66° NE 20:26:12 66° NE 20:31:05 10° NNE
Cosmos 1943 4.2 20:23:24 17° SW 20:27:25 44° WNW 20:32:51 10° NNE
Cosmos 921 Rocket 4.2 20:27:06 10° NNW 20:30:06 40° NW 20:30:06 40° NW
NOSS 3-1 (A) 4.0 20:24:24 10° NW 20:31:46 84° NE 20:33:20 64° SE
Meteor 2-3 Rocket 4.4 20:27:19 10° N 20:31:47 44° NE 20:31:47 44° NE
Cosmos 2100 Rocket 4.0 20:42:04 69° NE 20:42:04 69° NE 20:47:36 10° N
Ariane Rocket 4.5 20:57:13 29° W 20:57:13 29° W 21:01:05 10° NW
Cosmos 1656 4.3 20:58:50 10° NNW 21:02:57 50° N 21:02:57 50° N
BREEZE-M DEB (TANK) 4.2 20:55:05 10° WSW 21:11:38 80° NNW 21:16:54 10° ENE
ATLAS 5 CENTAUR R/B 3.5 21:09:04 10° NNW 21:11:03 28° NNW 21:11:03 28° NNW
Cosmos 1833 Rocket 4.3 21:19:39 26° NE 21:19:39 26° NE 21:22:08 10° NE
Cosmos 1725 Rocket 4.3 21:24:14 64° N 21:24:14 64° N 21:29:32 10° N
Cosmos 2233 Rocket 4.5 21:34:00 56° NNE 21:34:00 56° NNE 21:38:50 10° N
ATLAS 2AS CENTAUR R/B 3.2 21:38:07 53° NE 21:38:07 53° NE 21:43:11 10° NE
COSMOS 2455 4.4 21:37:53 10° NW 21:41:17 26° WNW 21:41:17 26° WNW
SJ 16-02 4.0 21:39:38 10° NW 21:40:32 15° NW 21:40:32 15° NW
CZ-2C R/B 4.3 21:47:41 27° NE 21:47:41 27° NE 21:51:12 10° N
SeaSat 1 4.1 21:56:42 29° NW 21:56:42 29° NW 21:59:04 10° NNW
ACS3 Solar Sail 4.0 21:59:19 10° NE 22:01:13 13° ENE 22:01:13 13° ENE
Cosmos 1697 Rocket 3.8 22:01:49 10° NNW 22:05:25 40° NNW 22:05:25 40° NNW
CZ-4C R/B 4.5 22:20:44 12° NE 22:20:44 12° NE 22:21:09 10° NE
Cosmos 1980 Rocket 3.3 22:22:36 10° NNW 22:26:39 40° NNE 22:26:39 40° NNE
ATLAS 3B R/B 2.9 22:48:32 10° NW 22:55:40 76° NNW 22:55:40 76° NNW
Cosmos 2333 Rocket 4.4 22:55:12 10° N 22:59:18 20° NE 23:02:07 14° E
Cosmos 1833 Rocket 4.4 23:01:17 25° NW 23:01:17 25° NW 23:05:32 10° N
Cosmos 2082 Rocket 3.2 23:02:51 42° NE 23:02:51 42° NE 23:06:37 10° NNE
CZ-2C R/B 4.5 23:05:51 10° N 23:09:16 34° NNW 23:09:16 34° NNW
USA 229 4.5 23:14:58 10° NW 23:20:40 48° WNW 23:20:40 48° WNW
CZ-2C R/B 4.3 23:29:07 26° NW 23:29:07 26° NW 23:31:43 10° NNW
SL-16 R/B 3.5 23:21:36 10° N 23:26:45 34° NE 23:27:50 31° E
ATLAS 2AS CENTAUR R/B 4.2 23:25:29 23° WNW 23:27:54 28° NW 23:33:40 10° NNE
Cosmos 2279 Rocket 4.3 23:43:05 60° E 23:43:05 60° E 23:48:56 10° NNE
ACS3 Solar Sail 1.9 23:39:24 10° N 23:44:46 71° N 23:44:46 71° N
IDEFIX/ARIANE 42P 3.5 23:42:18 10° NNE 23:46:20 43° ENE 23:46:20 43° ENE
ADEOS Rocket 4.3 23:42:43 10° NNE 23:49:56 42° E 23:52:01 36° SE
